Location: Buckhorn Peak
(37.6641°N, 120.1241°W)
Time: 02:13:57
(UTC+00:00)

Hubble Space Telescope - Pass Details

Date: 17 December 2025
Orbit: 479 x 481 km, 28.5° (Epoch: 19 January)

Event Time Altitude Azimuth Distance (km) Brightness Sun altitude
Rises 01:13:34 0° 251° (WSW) 2,529 6.8 -6.1°
Reaches altitude 10° 01:16:14 10° 232° (SW) 1,650 4.9 -6.6°
Maximum altitude 01:18:57 19° 186° (S) 1,203 3.0 -7.1°
Drops below altitude 10° 01:21:40 10° 140° (SE) 1,648 3.1 -7.6°
Sets 01:24:20 0° 122° (ESE) 2,526 3.9 -8.1°
